Location: Borger
(52.9222°N, 6.7926°E)
Time: 11:29:32
(UTC+00:00)

Cosmos 192 - Pass Details

Date: 15 May 2026
Orbit: 695 x 707 km, 74.0° (Epoch: 8 June)

Event Time Altitude Azimuth Distance (km) Brightness Sun altitude
Rises 23:14:22 0° 335° (NNW) 3,115 8.9 -18.0°
Reaches altitude 10° 23:16:43 10° 337° (NNW) 2,191 8.0 -18.0°
Maximum altitude 23:21:40 70° 62° (ENE) 754 4.5 -18.0°
Enters shadow 23:24:20 27° 140° (SE) 1,346 5.3 -18.0°
